Terre Haute, IN

6:36 AM EST on February 26, 2017 (GMT -0500)
Terre Haute International-Hulman

Weather History for KHUF - March, 2013

Change the Weather History Date:

Friday, March 15, 2013

  Actual Average Record
Temperature  
Mean Temperature 39 °F 42 °F  
Max Temperature 53 °F 53 °F 81 °F (2012)
Min Temperature 25 °F 32 °F 15 °F (1975)
Degree Days  
Heating Degree Days 26 23  
Month to date heating degree days 443 379  
Since 1 July heating degree days 4364 4542  
Cooling Degree Days 0 0  
Month to date cooling degree days 0 0  
Year to date cooling degree days 0 0  
Moisture  
Dew Point 34 °F    
Average Humidity 80    
Maximum Humidity 100    
Minimum Humidity 59    
Precipitation  
Precipitation 0.00 in 0.12 in 1.58 in (2007)
Month to date precipitation 0.61 1.45  
Year to date precipitation 8.26 5.74  
Sea Level Pressure  
Sea Level Pressure 29.95 in    
Wind  
Wind Speed 4 mph (SSE)    
Max Wind Speed 12 mph    
Max Gust Speed -    
Visibility 8 miles    
Events      
T = Trace of Precipitation, MM = Missing Value Source: NWS Daily Summary

Daily Weather History Graph

Daily Weather History Graph

Search for Another Location

Airport or City:

Trip Planner

Search our weather history database for the weather conditions in past years. The results will help you decide how hot, cold, wet, or windy it might be!

Date:

Astronomy

Mar. 15, 2013 Rise Set
Actual Time 8:00 AM EDT 7:56 PM EDT
Civil Twilight 7:33 AM EDT 8:23 PM EDT
Nautical Twilight 7:02 AM EDT 8:54 PM EDT
Astronomical Twilight 6:30 AM EDT 9:26 PM EDT
Moon 9:51 AM EDT (3/15) No Moon Set
Length of Visible Light 12h 49m
Length of Day
11h 56m
Waxing Crescent, 15% of the Moon is Illuminated
Mar 15
Waxing Crescent
Mar 19
First Quarter
Mar 27
Full
Apr 3
Last Quarter
Apr 10
New

Hourly Weather History & Observations

Time (EDT) Temp. Windchill Dew Point Humidity Pressure Visibility Wind Dir Wind Speed Gust Speed Precip Events Conditions
12:53 AM 30.9 °F 24.3 °F 30.0 °F 96% 30.17 in 6.0 mi South 6.9 mph - N/A   Clear
1:53 AM 30.0 °F 26.5 °F 28.0 °F 92% 30.15 in 6.0 mi South 3.5 mph - N/A   Clear
2:53 AM 30.0 °F - 28.0 °F 92% 30.12 in 5.0 mi Calm Calm - N/A   Clear
3:53 AM 30.0 °F 25.2 °F 28.0 °F 92% 30.07 in 6.0 mi South 4.6 mph - N/A   Clear
4:53 AM 28.0 °F - 26.1 °F 92% 30.07 in 5.0 mi Calm Calm - N/A   Clear
5:53 AM 26.1 °F 21.9 °F 24.1 °F 92% 30.06 in 5.0 mi ESE 3.5 mph - N/A   Clear
6:53 AM 26.1 °F - 25.0 °F 96% 30.04 in 5.0 mi Calm Calm - N/A   Clear
7:53 AM 28.0 °F 24.2 °F 27.0 °F 96% 30.01 in 5.0 mi SSE 3.5 mph - N/A   Clear
8:53 AM 28.9 °F - 27.0 °F 92% 30.02 in 3.0 mi Calm Calm - N/A   Clear
9:53 AM 32.0 °F - 30.0 °F 92% 30.02 in 3.0 mi Calm Calm - N/A   Clear
10:53 AM 37.0 °F 34.5 °F 33.1 °F 86% 30.01 in - Variable 3.5 mph - N/A   Clear
11:53 AM 41.0 °F 39.0 °F 34.0 °F 76% 29.99 in 9.0 mi SSE 3.5 mph - N/A   Clear
12:53 PM 46.0 °F - 36.0 °F 68% 29.98 in 10.0 mi Calm Calm - N/A   Clear
1:53 PM 48.0 °F - 37.0 °F 66% 29.97 in 10.0 mi South 3.5 mph - N/A   Clear
2:53 PM 52.0 °F - 39.9 °F 63% 29.94 in 10.0 mi South 4.6 mph - N/A   Clear
3:53 PM 52.0 °F - 39.0 °F 61% 29.90 in 10.0 mi South 6.9 mph - N/A   Clear
4:53 PM 53.1 °F - 39.0 °F 59% 29.89 in 10.0 mi South 3.5 mph - N/A   Mostly Cloudy
5:53 PM 53.1 °F - 41.0 °F 64% 29.87 in 10.0 mi SE 6.9 mph - N/A   Scattered Clouds
6:53 PM 51.1 °F - 42.1 °F 71% 29.84 in 10.0 mi SE 6.9 mph - N/A   Overcast
7:53 PM 50.0 °F - 41.0 °F 71% 29.82 in 10.0 mi SE 11.5 mph - N/A   Overcast
8:53 PM 48.9 °F - 41.0 °F 74% 29.76 in 10.0 mi ESE 8.1 mph - N/A   Overcast
9:53 PM 50.0 °F - 41.0 °F 71% 29.74 in 10.0 mi SSE 4.6 mph - N/A   Overcast
10:53 PM 48.9 °F - 39.9 °F 71% 29.74 in 10.0 mi NNE 9.2 mph - N/A   Clear
11:53 PM 44.1 °F 40.1 °F 37.0 °F 76% 29.72 in 10.0 mi NE 6.9 mph - N/A   Clear